Volver al catálogo

ORBCOMM FM 106

ActivoComunicacionesLEO
NORAD 40088·PAYLOAD·🇺🇸 United States

Lanzado Jul 14, 2014 desde Cape Canaveral Space Force Station

Loading…

Próximos Pases (próximas 24 horas)

TLE

ActualizadoSource: Space-Track

Época: Sep 14, 2026, 05:17 UTC

1 40088U 14040C   26257.22039090  .00000618  00000-0  13150-3 0  9994
2 40088  47.0594 176.2014 0016448  16.0674 344.0736 14.70634417650284

Sigue ORBCOMM FM 106 en tiempo real con AllMySat

Download on the App Store